Location: Huberhof
(49.2050°N, 7.4980°E)
Time: 05:31:49
(UTC+00:00)

ADEOS Rocket - Pass Details

Date: 29 October 2020
Orbit: 859 x 1306 km, 98.7° (Epoch: 25 November)

Event Time Altitude Azimuth Distance (km) Brightness Sun altitude
Rises 16:42:02 0° 14° (NNE) 3,732 5.8 -5.3°
Reaches altitude 10° 16:44:24 10° 14° (NNE) 2,835 5.2 -5.7°
Maximum altitude 16:50:52 88° 288° (WNW) 1,121 3.4 -6.7°
Drops below altitude 10° 16:58:03 10° 198° (SSW) 3,131 6.1 -7.9°
Sets 17:00:47 0° 199° (SSW) 4,144 6.7 -8.3°
